If you wish to contribute or participate in the discussions about articles you are invited to join SKYbrary as a registered user

 Actions

Anaktuvuk Pass Airport

From SKYbrary Wiki

PAKP
Airport
ICAO: PAKP – IATA: AKP
Summary
Name Anaktuvuk Pass Airport
Region North America
Territory Alaska US.gif
Location Anaktuvuk Pass, Alaska
Serving Anaktuvuk Pass
Elevation 640.69 m
2,102 ft
2,102 ft640.69 m
Type medium airport
Coordinates 68° 8' 0.96" N, 151° 44' 34.80" W
Runways
Designator Length Width Surface ROPS
2/20 1463 m4,799.869 ft
30 m98.425 ft
GRAVEL-G /


METAR
Observation PAKP 260256Z AUTO 05013KT 10SM CLR 11/M01 A3019 RMK AO2 SLP254 T01111011 55000
Station Anaktuvuk Pass, Anaktuvuk Pass Airport
Date/Time 26 June 2019 02:56:00
Wind direction 50°
Wind speed 13 kts
Lowest cloud amount n/a
Temperature 11.1°C
Dew point
Humidity 42%
QNH hPa
Weather condition n/a

Maps

Terrain

Loading map...

Airport Layout

Loading map...


Accidents & Serious Incidents at or in vicinity of PAKP

None on SKYbrary